OBJECT B, 56154

Orbit data source: Space-Track

You're viewing an Uncataloged Satellite

Recently launched and/or uncataloged satellites may have evolving metadata. Metadata may include but not limited to: Owner, Maufacturer, Bus, Motor, and Mission.

OBJECT B, 56154 is a satellite owned by Hangtian Hongtu (CN) in SSO that was launched on Thu, 30 Mar 2023 UTC via a CHANG ZHENG 2D launch vehicle from the Taiyaun Space Center, China (TSC). Unknown objects in Earth's orbit typically refer to objects detected orbiting the Earth but have not yet been identified or cataloged. These objects could be anything from previously untracked satellites, spent rocket stages, debris from satellite collisions, or even natural meteoroids temporarily captured by Earth's gravity.

Loading next visibility...
Identifier
56154, 2023-047B
Orbit
SSO
Country
Flag of CNCN / PRC
Related business
Manufacturer
Yinhe
Mission
Operational Commercial Radar Imaging
Bus & Motor
PIESAT, Unknown motor
Mass
270 kg wet, 270 kg dry
Launch date (UTC)
2023-03-30 (3 years ago)
Launch vehicle
CHANG ZHENG 2D
Launch site
Taiyaun Space Center, China (TSC)
Object type
Unknown
Shape & HBR
Box + 2 Pan, 2.0 m
Radar Cross Section
2.315 m², Large (>1 m²)

Expand to show TLE details & history
Last TLE update: 3 days ago

TLE from 3 days ago
0 OBJECT B
1 56154U 23047B   26170.53370849  .00003073  00000-0  17148-3 0  9999
2 56154  97.5006 357.6398 0001536 112.9880 247.1514 15.14292309178157
Epoch: 2026-06-19T12:48Z
TLE epoch observation values (Epoch: 2026-06-19T12:48:32.413Z)
Latitude
-0.00002°
Longitude
-102.25656°
Altitude
526.62 km
Speed
7.6 km/s
True Right ascension
23h 50m 33s
True Declination
0° 00' 00"
Sunlit
Object was in daylight at epoch
Visualization orbit readout
Latitude
Unknown
Longitude
Unknown
Altitude
Unknown
Speed
Unknown
Apparent Right ascension
Unknown
Apparent Declination
Unknown
Sunlit
N/A
Visualization observer readout
Local Sidereal Time
21:38:32
Azimuth
Unknown
Elevation
Unknown
Doppler factor
Unknown
Orbital elements
Apogee altitude
521.165 km
Perigee altitude
519.046 km
Semi-major axis
6,898.242 km
Eccentricity
0.00015
Inclination
97.5006°
RAAN
357.6398°
Arg. of periapsis
112.988°
True anomaly
247.13518°
Mean anomaly
247.1514°
Eccentric anomaly
247.14329°
Mean motion
3.78822 °/min
Orbital period
95.03 mins
BSTAR
0.00017148
Loading maneuver chart data...
Computing Atmospheric mass density...
Loading historical data...
Loading historical data...
Loading historical data...
Loading historical data...
Loading historical data...
Loading historical data...
Loading historical data...
Other satellites on launch #47 in the year 2023 (2023-03-30 UTC)

Documentation

Showing up to 5 results
|